Starlink 30581

operational
NORAD ID: 58096 Int'l Des: 2023-160 Owner: SPXS Country: US Constellation: starlink
LEOCIRCULAR

Über Starlink 30581

Beschreibung wird geladen...

Live-Position

3D-Globus wird geladen...

Nächste Überflüge

Höhenverlauf

Altitude vs Time

uPlot chart will show altitude changes over time

Zweizeiliger Elementsatz

1 58096U 23160X 26062.16668981 .00028464 00000-0 10670-2 0 9991
2 58096 43.0032 114.8037 0001127 242.2135 242.3153 15.26732076 5718
Epoch: 3. März 2026 • Age: 13 hours

Aktueller Status

Höhe 486.0 km
Geschwindigkeit 7.63 km/s
Subsatellitenpunkt 24.69°N, 145.08°E
Startdatum 18. Okt. 2023
Alter 2.3 years
Typ internet

Technische Details

Klassifizierung Payload
Masse 730.00 kg
Trockenmasse 700.00 kg
Gesamtmasse 730.00 kg
Länge 0.30 m
Durchmesser 4.10 m
Spannweite 29.00 m
Form Box + pan
Hersteller SPXS
Bus-Typ Starlink V2M
Phasenstatus In Orbit
Besitzer/Staat SPXS/US

Große Konstellationen

Loading constellations...